Location: Newark
(31.5350°N, 35.0986°E)
Time: 07:45:26
(UTC+00:00)

Vanguard 3 - Visible Passes

Search period start: 17 October 2019 00:00
Search period end: 27 October 2019 00:00
Orbit: 508 x 3262 km, 33.3° (Epoch: 17 October)

Date Brightness Start Highest point End Pass type
(mag) Time Alt. Az. Time Alt. Az. Time Alt. Az.
17 Oct 7.8 02:11:55 36° W 02:14:44 77° SSW 02:24:57 10° ESE visible
18 Oct 8.1 01:02:18 51° E 01:02:18 51° E 01:08:28 10° E visible
18 Oct 8.6 03:06:53 10° W 03:13:05 50° SSW 03:24:07 10° SE visible
19 Oct 7.5 01:57:17 51° WSW 01:58:44 67° SSW 02:07:51 10° ESE visible
20 Oct 8.8 00:47:42 32° ESE 00:47:42 32° ESE 00:51:48 10° ESE visible
20 Oct 8.7 02:52:17 15° W 02:57:00 40° SSW 03:06:31 10° SE visible
21 Oct 7.5 01:42:43 55° SSW 01:42:47 56° SSW 01:50:48 10° ESE visible
22 Oct 9.5 00:33:11 19° ESE 00:33:11 19° ESE 00:35:13 10° ESE visible
22 Oct 8.6 02:37:46 20° WSW 02:41:01 31° SSW 02:48:54 10° SE visible
23 Oct 8.2 01:28:14 38° SSE 01:28:14 38° SSE 01:33:47 10° SE visible
23 Oct 9.7 17:33:32 10° SSW 17:35:33 15° S 17:35:33 15° S visible
24 Oct 8.7 02:23:19 20° SW 02:25:06 23° SSW 02:31:12 10° SSE visible
24 Oct 9.5 16:20:21 10° S 16:24:11 13° SSE 16:26:03 12° SE visible
24 Oct 10.2 18:30:36 10° SW 18:30:38 10° SW 18:30:38 10° SW visible
25 Oct 9.0 01:13:48 22° SSE 01:13:48 22° SSE 01:16:47 10° SE visible
25 Oct 9.7 03:22:31 10° SSW 03:23:38 10° SSW 03:24:50 10° SSW visible
25 Oct 9.1 17:15:51 10° SSW 17:21:08 25° S 17:21:08 25° S visible
26 Oct 9.0 02:08:54 16° SSW 02:09:14 16° SSW 02:13:17 10° SSE visible
26 Oct 9.3 16:01:28 10° SSW 16:08:13 20° SSE 16:11:35 15° ESE visible
26 Oct 9.7 18:13:40 10° SW 18:16:10 19° SW 18:16:10 19° SW visible
